Tracking 32418 objects as of 9-Dec-2025
HD Live streaming from Space Station
objects crossing your sky now

STARLINK-35010

Track STARLINK-35010 now!
10-day predictions
STARLINK-35010 is classified as:


NORAD ID: 65281
Int'l Code: 2025-184J
Perigee: 556.2 km
Apogee: 557.1 km
Inclination: 97.6 °
Period: 95.6 minutes
Semi major axis: 6927 km
RCS: Unknown
Launch date: August 22, 2025
Source: United States (US)
Launch site: AIR FORCE WESTERN TEST RANGE (AFWTR)
Your satellite tracking list
Your tracking list is empty




NASA's NSSDC Master Catalog

Two Line Element Set (TLE):
1 65281U 25184J   25343.57487725  .00007285  00000-0  50845-3 0  9991
2 65281  97.6035  33.8655 0000637 115.1107 245.0186 15.05659015 17748
Source of the keplerian elements: AFSPC